Location: Bohy
(49.9380°N, 13.5753°E)
Time: 20:58:19
(UTC+00:00)

CZ-4B R/B - Pass Details

Date: 19 May 2025
Orbit: 807 x 881 km, 98.9° (Epoch: 15 June)

Event Time Altitude Azimuth Distance (km) Brightness Sun altitude
Rises 19:21:48 0° 173° (S) 3,424 5.9 -4.9°
Reaches altitude 10° 19:24:13 10° 176° (S) 2,481 5.2 -5.2°
Maximum altitude 19:29:40 63° 257° (WSW) 943 3.7 -5.8°
Drops below altitude 10° 19:35:03 10° 339° (NNW) 2,450 6.8 -6.5°
Sets 19:37:26 0° 343° (NNW) 3,377 7.5 -6.8°
